Chehalis, WA
on Tuesday, January 29, 2013

Tuesday
Previous Day Next Day
Daily Summary
 ActualAverage (KOLM)Record (KOLM)
Temperature
Mean Temperature °F / °C 40°F / 4°C  
Max Temperature 48°F / 9°C 47°F / 8°C 57°F / 13°C (1960)
Min Temperature 42°F / 6°C 34°F / 1°C 0°F / -17°C (1972)
Degree Days
Heating Degree Days 20 25  
Month to date heating degree days 735  
Since 1 July heating degree days 3005  
Cooling Degree Days 0 0  
Month to date cooling degree days 0  
Year to date cooling degree days 0  
Moisture
Dew Point 43°F / 6°C   
Average Humidity 91    
Maximum Humidity 100    
Minimum Humidity 87    
Precipitation
Precipitation 0.11 in / 2.79 cm 0.23 in / 5.84 cm 2.23 in / 5.66 cm (2006)
Month to date precipitation 7.37  
Year to date precipitation 7.37  
Wind
Wind Speed 6 mph / 10 km/h   
Max Wind Speed 9 mph / 14 km/h   
Max Gust Speed 16 mph / 26 km/h   
Visibility 6 miles / 10 kilometers   
Events Rain   

Key: T is trace of precipitation, MM is missing value
Source: NWS Daily Summary
Time(PST)TemperatureDew PointHumidity Pressure Visibility Wind DirectionWind SpeedGust SpeedPrecipitationEvents Conditions
12:15 AM 42.8°F / 6.0°C 41.0°F / 5.0°C 93% 30.17 in / 1021.6 hPa 5.0 miles / 8.0 kilometers South 5.8 mph / 9.3 km/h - 0.01 in / 0.3 cm Rain Light Rain
12:35 AM 42.8°F / 6.0°C 41.0°F / 5.0°C 93% 30.18 in / 1021.9 hPa 7.0 miles / 11.3 kilometers South 5.8 mph / 9.3 km/h - 0.01 in / 0.3 cm Rain Light Rain
12:55 AM 42.8°F / 6.0°C 41.0°F / 5.0°C 93% 30.18 in / 1021.9 hPa 7.0 miles / 11.3 kilometers South 4.6 mph / 7.4 km/h - 0.01 in / 0.3 cm   Overcast
1:15 AM 42.8°F / 6.0°C 41.0°F / 5.0°C 93% 30.18 in / 1021.9 hPa 6.0 miles / 9.7 kilometers SSW 4.6 mph / 7.4 km/h - N/A   Overcast
1:35 AM 44.6°F / 7.0°C 41.0°F / 5.0°C 87% 30.18 in / 1021.9 hPa 7.0 miles / 11.3 kilometers South 4.6 mph / 7.4 km/h - N/A Rain Light Rain
1:55 AM 44.6°F / 7.0°C 41.0°F / 5.0°C 87% 30.19 in / 1022.2 hPa 4.0 miles / 6.4 kilometers South 4.6 mph / 7.4 km/h - N/A Rain Light Rain
2:15 AM 44.6°F / 7.0°C 42.8°F / 6.0°C 93% 30.19 in / 1022.2 hPa 5.0 miles / 8.0 kilometers South 5.8 mph / 9.3 km/h - N/A Rain Light Rain
2:35 AM 44.6°F / 7.0°C 42.8°F / 6.0°C 93% 30.20 in / 1022.6 hPa 5.0 miles / 8.0 kilometers South 4.6 mph / 7.4 km/h - 0.01 in / 0.3 cm Rain Light Rain
2:55 AM 44.6°F / 7.0°C 42.8°F / 6.0°C 93% 30.20 in / 1022.6 hPa 5.0 miles / 8.0 kilometers South 5.8 mph / 9.3 km/h - 0.03 in / 0.8 cm Rain Light Rain
3:15 AM 44.6°F / 7.0°C 42.8°F / 6.0°C 93% 30.21 in / 1022.9 hPa 5.0 miles / 8.0 kilometers South 5.8 mph / 9.3 km/h - N/A   Overcast
3:35 AM 44.6°F / 7.0°C 42.8°F / 6.0°C 93% 30.21 in / 1022.9 hPa 6.0 miles / 9.7 kilometers South 6.9 mph / 11.1 km/h - N/A   Overcast
3:55 AM 44.6°F / 7.0°C 42.8°F / 6.0°C 93% 30.21 in / 1022.9 hPa 5.0 miles / 8.0 kilometers South 5.8 mph / 9.3 km/h - 0.02 in / 0.5 cm Rain Light Rain
4:15 AM 44.6°F / 7.0°C 42.8°F / 6.0°C 93% 30.21 in / 1022.9 hPa 6.0 miles / 9.7 kilometers South 5.8 mph / 9.3 km/h - 0.01 in / 0.3 cm   Overcast
4:35 AM 44.6°F / 7.0°C 42.8°F / 6.0°C 93% 30.22 in / 1023.2 hPa 9.0 miles / 14.5 kilometers South 6.9 mph / 11.1 km/h - 0.02 in / 0.5 cm Rain Light Rain
4:55 AM 44.6°F / 7.0°C 42.8°F / 6.0°C 93% 30.23 in / 1023.6 hPa 10.0 miles / 16.1 kilometers South 6.9 mph / 11.1 km/h - 0.02 in / 0.5 cm   Overcast
5:15 AM 44.6°F / 7.0°C 42.8°F / 6.0°C 93% 30.23 in / 1023.6 hPa 7.0 miles / 11.3 kilometers SSW 5.8 mph / 9.3 km/h - N/A Rain Light Rain
5:35 AM 44.6°F / 7.0°C 42.8°F / 6.0°C 93% 30.24 in / 1023.9 hPa 7.0 miles / 11.3 kilometers WSW 3.5 mph / 5.6 km/h - N/A   Overcast
5:55 AM 44.6°F / 7.0°C 42.8°F / 6.0°C 93% 30.24 in / 1023.9 hPa 2.5 miles / 4.0 kilometers SSW 3.5 mph / 5.6 km/h - 0.01 in / 0.3 cm   Overcast
6:15 AM 44.6°F / 7.0°C 42.8°F / 6.0°C 93% 30.24 in / 1023.9 hPa 10.0 miles / 16.1 kilometers SW 4.6 mph / 7.4 km/h - N/A   Overcast
6:35 AM 44.6°F / 7.0°C 42.8°F / 6.0°C 93% 30.25 in / 1024.3 hPa 9.0 miles / 14.5 kilometers SW 4.6 mph / 7.4 km/h - N/A   Overcast
6:55 AM 44.6°F / 7.0°C 42.8°F / 6.0°C 93% 30.26 in / 1024.6 hPa 8.0 miles / 12.9 kilometers SSW 3.5 mph / 5.6 km/h - N/A   Overcast
7:15 AM 44.6°F / 7.0°C 42.8°F / 6.0°C 93% 30.26 in / 1024.6 hPa 8.0 miles / 12.9 kilometers South 4.6 mph / 7.4 km/h - N/A Rain Light Rain
7:35 AM 44.6°F / 7.0°C 44.6°F / 7.0°C 100% 30.27 in / 1024.9 hPa 10.0 miles / 16.1 kilometers SW 4.6 mph / 7.4 km/h - N/A   Overcast
7:55 AM 44.6°F / 7.0°C 44.6°F / 7.0°C 100% 30.27 in / 1024.9 hPa 7.0 miles / 11.3 kilometers SW 5.8 mph / 9.3 km/h - N/A   Overcast
8:15 AM 44.6°F / 7.0°C 44.6°F / 7.0°C 100% 30.28 in / 1025.3 hPa 5.0 miles / 8.0 kilometers SW 3.5 mph / 5.6 km/h - N/A   Overcast
8:35 AM 44.6°F / 7.0°C 44.6°F / 7.0°C 100% 30.29 in / 1025.6 hPa 5.0 miles / 8.0 kilometers SSW 5.8 mph / 9.3 km/h - N/A   Overcast
8:55 AM 44.6°F / 7.0°C 44.6°F / 7.0°C 100% 30.30 in / 1026.0 hPa 5.0 miles / 8.0 kilometers SSW 3.5 mph / 5.6 km/h - N/A   Overcast
9:15 AM 46.4°F / 8.0°C 44.6°F / 7.0°C 93% 30.31 in / 1026.3 hPa 5.0 miles / 8.0 kilometers SSW 4.6 mph / 7.4 km/h - N/A   Overcast
9:35 AM 46.4°F / 8.0°C 44.6°F / 7.0°C 93% 30.32 in / 1026.6 hPa 4.0 miles / 6.4 kilometers SW 3.5 mph / 5.6 km/h - N/A   Mostly Cloudy
9:55 AM 46.4°F / 8.0°C 44.6°F / 7.0°C 93% 30.32 in / 1026.6 hPa 5.0 miles / 8.0 kilometers SW 4.6 mph / 7.4 km/h - N/A   Overcast
10:15 AM 46.4°F / 8.0°C 44.6°F / 7.0°C 93% 30.33 in / 1027.0 hPa 5.0 miles / 8.0 kilometers SW 5.8 mph / 9.3 km/h - N/A   Overcast
10:35 AM 46.4°F / 8.0°C 44.6°F / 7.0°C 93% 30.34 in / 1027.3 hPa 5.0 miles / 8.0 kilometers SW 5.8 mph / 9.3 km/h - N/A   Overcast
10:55 AM 46.4°F / 8.0°C 44.6°F / 7.0°C 93% 30.35 in / 1027.7 hPa 5.0 miles / 8.0 kilometers SW 6.9 mph / 11.1 km/h - N/A   Mostly Cloudy
11:15 AM 46.4°F / 8.0°C 44.6°F / 7.0°C 93% 30.35 in / 1027.7 hPa 5.0 miles / 8.0 kilometers SSW 8.1 mph / 13.0 km/h - N/A   Overcast
11:35 AM 48.2°F / 9.0°C 44.6°F / 7.0°C 87% 30.36 in / 1028.0 hPa 5.0 miles / 8.0 kilometers SW 8.1 mph / 13.0 km/h - N/A   Overcast
11:55 AM 48.2°F / 9.0°C 44.6°F / 7.0°C 87% 30.36 in / 1028.0 hPa 5.0 miles / 8.0 kilometers SW 8.1 mph / 13.0 km/h - N/A   Overcast
12:15 PM 48.2°F / 9.0°C 44.6°F / 7.0°C 87% 30.37 in / 1028.3 hPa 4.0 miles / 6.4 kilometers WSW 6.9 mph / 11.1 km/h - N/A   Mostly Cloudy
12:35 PM 48.2°F / 9.0°C 44.6°F / 7.0°C 87% 30.37 in / 1028.3 hPa 7.0 miles / 11.3 kilometers SW 6.9 mph / 11.1 km/h - N/A   Mostly Cloudy
12:55 PM 48.2°F / 9.0°C 44.6°F / 7.0°C 87% 30.37 in / 1028.3 hPa 3.0 miles / 4.8 kilometers WSW 8.1 mph / 13.0 km/h - N/A   Mostly Cloudy
1:15 PM 48.2°F / 9.0°C 44.6°F / 7.0°C 87% 30.37 in / 1028.3 hPa 5.0 miles / 8.0 kilometers WSW 8.1 mph / 13.0 km/h - N/A   Mostly Cloudy
1:35 PM 48.2°F / 9.0°C 44.6°F / 7.0°C 87% 30.37 in / 1028.3 hPa 5.0 miles / 8.0 kilometers WSW 8.1 mph / 13.0 km/h - N/A   Overcast
1:55 PM 48.2°F / 9.0°C 44.6°F / 7.0°C 87% 30.37 in / 1028.3 hPa 5.0 miles / 8.0 kilometers SW 8.1 mph / 13.0 km/h - N/A   Overcast
2:15 PM 48.2°F / 9.0°C 44.6°F / 7.0°C 87% 30.38 in / 1028.7 hPa 5.0 miles / 8.0 kilometers WSW 8.1 mph / 13.0 km/h - N/A   Overcast
2:35 PM 48.2°F / 9.0°C 44.6°F / 7.0°C 87% 30.38 in / 1028.7 hPa 6.0 miles / 9.7 kilometers West 8.1 mph / 13.0 km/h - N/A   Haze
2:55 PM 48.2°F / 9.0°C 44.6°F / 7.0°C 87% 30.39 in / 1029.0 hPa 4.0 miles / 6.4 kilometers SW 5.8 mph / 9.3 km/h - N/A   Overcast
3:15 PM 48.2°F / 9.0°C 44.6°F / 7.0°C 87% 30.39 in / 1029.0 hPa 5.0 miles / 8.0 kilometers SW 5.8 mph / 9.3 km/h - N/A   Overcast
3:35 PM 48.2°F / 9.0°C 44.6°F / 7.0°C 87% 30.40 in / 1029.3 hPa 5.0 miles / 8.0 kilometers SW 5.8 mph / 9.3 km/h - N/A   Overcast
3:55 PM 48.2°F / 9.0°C 44.6°F / 7.0°C 87% 30.40 in / 1029.3 hPa 9.0 miles / 14.5 kilometers SW 6.9 mph / 11.1 km/h - N/A   Overcast
4:15 PM 48.2°F / 9.0°C 44.6°F / 7.0°C 87% 30.41 in / 1029.7 hPa 10.0 miles / 16.1 kilometers SW 6.9 mph / 11.1 km/h - N/A   Overcast
4:35 PM 48.2°F / 9.0°C 44.6°F / 7.0°C 87% 30.41 in / 1029.7 hPa 10.0 miles / 16.1 kilometers SSW 8.1 mph / 13.0 km/h - N/A   Overcast
4:55 PM 46.4°F / 8.0°C 44.6°F / 7.0°C 93% 30.41 in / 1029.7 hPa 10.0 miles / 16.1 kilometers SSW 5.8 mph / 9.3 km/h - N/A   Overcast
5:15 PM 46.4°F / 8.0°C 44.6°F / 7.0°C 93% 30.41 in / 1029.7 hPa 3.0 miles / 4.8 kilometers SSW 4.6 mph / 7.4 km/h - N/A   Overcast
5:35 PM 46.4°F / 8.0°C 44.6°F / 7.0°C 93% 30.42 in / 1030.0 hPa 2.0 miles / 3.2 kilometers SSW 4.6 mph / 7.4 km/h - N/A Rain Light Rain
5:55 PM 46.4°F / 8.0°C 44.6°F / 7.0°C 93% 30.42 in / 1030.0 hPa 5.0 miles / 8.0 kilometers SSW 6.9 mph / 11.1 km/h - N/A Rain Light Rain
6:15 PM 46.4°F / 8.0°C 44.6°F / 7.0°C 93% 30.42 in / 1030.0 hPa 7.0 miles / 11.3 kilometers SW 6.9 mph / 11.1 km/h - N/A   Overcast
6:35 PM 46.4°F / 8.0°C 44.6°F / 7.0°C 93% 30.42 in / 1030.0 hPa 2.5 miles / 4.0 kilometers SW 3.5 mph / 5.6 km/h - N/A Rain Light Rain
6:55 PM 46.4°F / 8.0°C 44.6°F / 7.0°C 93% 30.43 in / 1030.4 hPa 9.0 miles / 14.5 kilometers WSW 6.9 mph / 11.1 km/h - N/A   Overcast
7:15 PM 46.4°F / 8.0°C 42.8°F / 6.0°C 87% 30.43 in / 1030.4 hPa 8.0 miles / 12.9 kilometers SW 6.9 mph / 11.1 km/h 16.1 mph / 25.9 km/h N/A   Overcast
7:35 PM 46.4°F / 8.0°C 42.8°F / 6.0°C 87% 30.43 in / 1030.4 hPa 7.0 miles / 11.3 kilometers SSW 3.5 mph / 5.6 km/h - N/A   Overcast
7:55 PM 46.4°F / 8.0°C 44.6°F / 7.0°C 93% 30.43 in / 1030.4 hPa 7.0 miles / 11.3 kilometers SSW 4.6 mph / 7.4 km/h - N/A   Overcast
8:15 PM 46.4°F / 8.0°C 42.8°F / 6.0°C 87% 30.44 in / 1030.7 hPa 7.0 miles / 11.3 kilometers SW 3.5 mph / 5.6 km/h - N/A   Overcast
8:35 PM 46.4°F / 8.0°C 42.8°F / 6.0°C 87% 30.42 in / 1030.0 hPa 6.0 miles / 9.7 kilometers SSW 5.8 mph / 9.3 km/h - N/A   Overcast
8:55 PM 44.6°F / 7.0°C 41.0°F / 5.0°C 87% 30.42 in / 1030.0 hPa 10.0 miles / 16.1 kilometers South 4.6 mph / 7.4 km/h - N/A   Mostly Cloudy
9:15 PM 44.6°F / 7.0°C 41.0°F / 5.0°C 87% 30.42 in / 1030.0 hPa 10.0 miles / 16.1 kilometers South 5.8 mph / 9.3 km/h - N/A   Overcast
9:35 PM 44.6°F / 7.0°C 41.0°F / 5.0°C 87% 30.41 in / 1029.7 hPa 10.0 miles / 16.1 kilometers South 5.8 mph / 9.3 km/h - N/A   Overcast
9:55 PM 44.6°F / 7.0°C 41.0°F / 5.0°C 87% 30.39 in / 1029.0 hPa 7.0 miles / 11.3 kilometers South 8.1 mph / 13.0 km/h - N/A   Overcast
10:15 PM 44.6°F / 7.0°C 42.8°F / 6.0°C 93% 30.40 in / 1029.3 hPa 10.0 miles / 16.1 kilometers South 3.5 mph / 5.6 km/h - N/A   Overcast
10:35 PM 44.6°F / 7.0°C 42.8°F / 6.0°C 93% 30.40 in / 1029.3 hPa 6.0 miles / 9.7 kilometers South 5.8 mph / 9.3 km/h - 0.01 in / 0.3 cm Rain Light Rain
10:55 PM 44.6°F / 7.0°C 42.8°F / 6.0°C 93% 30.39 in / 1029.0 hPa 5.0 miles / 8.0 kilometers South 9.2 mph / 14.8 km/h - 0.01 in / 0.3 cm Rain Light Rain
11:15 PM 44.6°F / 7.0°C 42.8°F / 6.0°C 93% 30.39 in / 1029.0 hPa 8.0 miles / 12.9 kilometers South 6.9 mph / 11.1 km/h - N/A   Overcast
11:35 PM 44.6°F / 7.0°C 42.8°F / 6.0°C 93% 30.40 in / 1029.3 hPa 5.0 miles / 8.0 kilometers SSW 3.5 mph / 5.6 km/h - N/A Rain Light Rain
11:55 PM 44.6°F / 7.0°C 42.8°F / 6.0°C 93% 30.40 in / 1029.3 hPa 10.0 miles / 16.1 kilometers SSW 3.5 mph / 5.6 km/h - 0.01 in / 0.3 cm   Overcast
Moon Phase
Jan. 29 Feb. 03 Feb. 10 Feb. 17 Feb. 25
Sunrise:07:39 AM (PST) Moon Rise:08:28 PM (PST)1/29
Sunset:05:11 PM (PST) Moon Set:08:25 AM (PST)1/29

Copyright © 2014 The Weather Underground, Inc.